Regional Weather Roundup
Issued by NWS

Home | Current Version | Previous Version | Graphics & Text | Print | Product List | Glossary On
Versions: 1 2 3 4 5 6 7 8 9 10 11 12 13 14 15 16 17 18 19 20 21 22 23 24 25 26 27 28 29 30 31 32 33 34 35 36 37 38 39 40 41 42 43 44 45 46 47 48 49 50
000
ASUS45 KBOU 291307
RWRCO

WEATHER ROUNDUP FOR COLORADO
NATIONAL WEATHER SERVICE DENVER/BOULDER CO
700 AM MDT TUE JUL 29 2014

NOTE: "FAIR" INDICATES FEW OR NO CLOUDS BELOW 12000 FEET WITH NO
SIGNIFICANT WEATHER AND/OR OBSTRUCTIONS TO VISIBILITY.

COZ001>005-013-030-031-291400-
...NORTHWEST COLORADO...

CITY           SKY/WX    TMP DP  RH WIND       PRES   REMARKS
CRAIG          CLOUDY    56  54  93 E5        30.34S
HAYDEN         CLOUDY    61  48  63 CALM      30.36R
MEEKER         CLOUDY    61  53  75 E3        30.35R
MOUNT WERNER   NOT AVBL
STEAMBOAT SPGS CLOUDY    58  50  76 E3        30.37S
WALDEN         MOCLDY    52  43  71 CALM      30.43S
$$

COZ006>008-011-291400-
...WEST CENTRAL VALLEYS...

CITY           SKY/WX    TMP DP  RH WIND       PRES   REMARKS
GRAND JUNCTION CLOUDY    64  59  83 E9        30.27R
MONTROSE       LGT RAIN  61  59  93 E9        30.35F
EAGLE          MOCLDY    57  52  82 CALM      30.39S
RIFLE          LGT RAIN  61  59  93 CALM      30.32S
DELTA          CLOUDY    64  61  91 NE6       30.32F
NUCLA          CLOUDY    59  55  88 E3        30.37S
$$

COZ017>023-064>068-291400-
...SOUTHWEST COLORADO...

CITY           SKY/WX    TMP DP  RH WIND       PRES   REMARKS
DURANGO        CLOUDY    59  56  89 CALM      30.37S
CORTEZ         CLOUDY    62  60  93 CALM      30.32F
PAGOSA SPRINGS CLOUDY    59  53  81 CALM      30.44S
TELLURIDE      LGT RAIN  52  52 100 CALM      30.53S
WOLF CREEK PAS NOT AVBL
$$

COZ009-010-012-014-032>034-037-058>063-291400-
...CENTRAL COLORADO...

CITY           SKY/WX    TMP DP  RH WIND       PRES   REMARKS
ASPEN          CLOUDY    54  51  90 CALM      30.44S
BUENA VISTA    CLOUDY    52  50  90 CALM      30.45R
COPPER MTN     CLOUDY    46  41  81 W13       30.69S
BERTHOUD PASS  FAIR      41  28  60 N3        30.74S
COTTONWOOD PAS CLOUDY    55  45  67 CALM      30.56R
GUNNISON       MOCLDY    55  52  88 NE3       30.48R
KREMMLING      MOCLDY    54  46  76 CALM      30.43R
LEADVILLE      CLOUDY    46  45  96 CALM      30.55R
MONARCH PASS   LGT RAIN  43  41  93 W22       30.78R VSB<1/4
SALIDA         MOCLDY    57  54  88 NW5       30.49S
SUNLIGHT       CLOUDY    50  48  93 CALM      30.62S
WILKERSON PASS MOSUNNY   48  39  71 E7        30.67S
$$

COZ069>075-291400-
...SAN LUIS VALLEY/SANGRE DE CRISTO MOUNTAINS...

CITY           SKY/WX    TMP DP  RH WIND       PRES   REMARKS
ALAMOSA        FOG       52  52 100 CALM      30.43S VSB 1/4
LA VETA PASS   FOG       46  46 100 SW10G17   30.56R VSB 1/4
SAGUACHE       PTCLDY    54  52  94 N5        30.46S
$$

COZ035-036-038>040-291400-
...NORTHERN COLORADO FRONT RANGE...

CITY           SKY/WX    TMP DP  RH WIND       PRES   REMARKS
DENVER INTL AP MOSUNNY   63  57  81 W8        30.25R
DMNS CITY PARK   N/A     65  55  70 SW2       30.26S
AURORA         PTSUNNY   60  55  81 SW5       30.28R
FRONT RANGE AP NOT AVBL
ERIE MUNI ARPT MOSUNNY   61  58  90 CALM      30.25R
BOULDER MUN AP MOSUNNY   64  55  72 W3        30.25S
CENTENNIAL     PTSUNNY   62  52  69 CALM      30.28S
BROOMFIELD     PTSUNNY   61  57  88 W3        30.28S
FORT COLLINS   SUNNY     64  57  77 N6        30.26R
LONGMONT       SUNNY     67  59  75 CALM      30.26R
$$

COZ041-046-047-076>085-087-088-291400-
...PIKES PEAK/PALMER DIVIDE AND SOUTHERN FOOTHILLS...

CITY           SKY/WX    TMP DP  RH WIND       PRES   REMARKS
COLO. SPRINGS  PTSUNNY   62  57  83 CALM      30.32R
A. F. ACADEMY  SUNNY     55  53  95 N8        30.33S
ELLICOTT       FOG       59  58  96 E9        30.31R VSB 3/4
FALCON         SUNNY     58  56  92 CALM      30.36S
FORT CARSON    SUNNY     60  54  78 NW6       30.30R
LIMON          FOG       58  58 100 CALM      30.28R VSB<1/4
MONUMENT HILL  SUNNY     55  52  88 E3        30.35S
TRINIDAD       PTSUNNY   62  58  86 SW9       30.29S
$$

COZ042>045-048>051-090-091-291400-
...NORTHEAST COLORADO...

CITY           SKY/WX    TMP DP  RH WIND       PRES   REMARKS
GREELEY ARPT   NOT AVBL
AKRON          MOSUNNY   65  58  78 S3        30.23R
BURLINGTON     SUNNY     61  59  93 S9        30.22R
WRAY             N/A     64  58  81 E5        30.22R
STERLING       MOSUNNY   63  61  94 NE5       30.20S
HOLYOKE        MOSUNNY   61  57  88 E7        30.23R FOG
FORT MORGAN    MOSUNNY   62  57  84 CALM      30.23R
$$

COZ086-089-092>099-291400-
...SOUTHEAST COLORADO...

CITY           SKY/WX    TMP DP  RH WIND       PRES   REMARKS
PUEBLO         MOSUNNY   65  63  93 CALM      30.23R
LA JUNTA       MOSUNNY   68  64  87 CALM      30.20R
LAMAR          MOSUNNY   68  63  84 S13       30.17S HAZE
SPRINGFIELD      N/A     65  64  97 S17       30.23S
$$



USA.gov is the U.S. government's official web portal to all federal, state and local government web resources and services.